Lubbock, TX

8:09 PM CST on November 14, 2019 (GMT -0600)
Lubbock International

Weather History for KLBB - September, 2019

Change the Weather History Date:

Friday, September 27, 2019

  Actual Average Record
Temperature  
Mean Temperature 80 °F 68 °F  
Max Temperature 93 °F 81 °F 100 °F (1953)
Min Temperature 68 °F 55 °F 39 °F (1917)
Degree Days  
Heating Degree Days 0 2  
Month to date heating degree days 0 17  
Since 1 July heating degree days 0 17  
Cooling Degree Days 16 4  
Month to date cooling degree days 352 210  
Year to date cooling degree days 2070 1736  
Growing Degree Days 30 (Base 50)    
Moisture  
Dew Point 56 °F    
Average Humidity 46    
Maximum Humidity 81    
Minimum Humidity 24    
Precipitation  
Precipitation 0.00 in 0.08 in 1.63 in (2004)
Month to date precipitation 4.67 2.30  
Year to date precipitation 20.26 15.37  
Snow  
Snow 0.00 in 0.00 in - ()
Month to date snowfall 0.0 0.0  
Since 1 July snowfall 0.0 0.0  
Since 1 September snowfall 0.0 0.0  
Snow Depth 0.00 in    
Sea Level Pressure  
Sea Level Pressure 29.67 in    
Wind  
Wind Speed 11 mph ()    
Max Wind Speed 25 mph    
Max Gust Speed 33 mph    
Visibility 10.0 miles    
Events      
T = Trace of Precipitation, MM = Missing Value Source: Averaged Metar Reports

Daily Weather History Graph

Daily Weather History Graph

Search for Another Location

Airport or City:

Astronomy

Sep. 27, 2019 Rise Set
Actual Time 7:38 AM CDT 7:37 PM CDT
Civil Twilight 7:13 AM CDT 8:02 PM CDT
Nautical Twilight 6:44 AM CDT 8:31 PM CDT
Astronomical Twilight 6:15 AM CDT 9:00 PM CDT
Moon 6:10 AM CDT (9/27) 7:23 PM CDT (9/27)
Length of Visible Light 12h 48m
Length of Day
11h 58m
Waning Crescent, 2% of the Moon is Illuminated
Sep 27
Waning Crescent
Sep 28
New
Oct 5
First Quarter
Oct 13
Full
Oct 21
Last Quarter

Hourly Weather History & Observations

Time (CDT) Temp. Heat Index Dew Point Humidity Pressure Visibility Wind Dir Wind Speed Gust Speed Precip Events Conditions
12:53 AM 78.1 °F - 59.0 °F 52% 29.70 in 10.0 mi South 12.7 mph - N/A   Clear
1:53 AM 75.0 °F - 60.1 °F 60% 29.69 in 10.0 mi SSW 15.0 mph - N/A   Clear
2:53 AM 75.9 °F - 61.0 °F 60% 29.69 in 10.0 mi SSW 17.3 mph - N/A   Clear
3:53 AM 73.9 °F - 62.1 °F 66% 29.68 in 10.0 mi SSW 18.4 mph - N/A   Clear
4:53 AM 75.0 °F - 63.0 °F 66% 29.67 in 10.0 mi SW 17.3 mph - N/A   Clear
5:53 AM 73.0 °F - 64.0 °F 73% 29.68 in 10.0 mi SW 16.1 mph - N/A   Clear
6:53 AM 71.1 °F - 63.0 °F 75% 29.69 in 10.0 mi SW 9.2 mph - N/A   Clear
7:53 AM 68.0 °F - 62.1 °F 81% 29.72 in 10.0 mi SW 6.9 mph - N/A   Partly Cloudy
8:53 AM 72.0 °F - 59.0 °F 64% 29.73 in 10.0 mi WSW 10.4 mph - N/A   Clear
9:53 AM 77.0 °F - 54.0 °F 45% 29.73 in 10.0 mi West 9.2 mph - N/A   Clear
10:53 AM 82.9 °F - 52.0 °F 34% 29.73 in 10.0 mi West 10.4 mph - N/A   Clear
11:53 AM 87.1 °F - 50.0 °F 28% 29.71 in 10.0 mi West 11.5 mph - N/A   Clear
12:53 PM 90.0 °F - 50.0 °F 25% 29.70 in 10.0 mi NW 8.1 mph - N/A   Clear
1:53 PM 91.0 °F - 50.0 °F 24% 29.67 in 10.0 mi WSW 6.9 mph - N/A   Partly Cloudy
2:53 PM 91.0 °F - 50.0 °F 24% 29.63 in 10.0 mi South 10.4 mph - N/A   Partly Cloudy
3:53 PM 93.0 °F 90.8 °F 54.0 °F 27% 29.61 in 10.0 mi South 11.5 mph 20.7 mph N/A   Partly Cloudy
4:53 PM 91.9 °F 89.5 °F 53.1 °F 27% 29.59 in 10.0 mi SSW 8.1 mph 21.9 mph N/A   Scattered Clouds
5:53 PM 90.0 °F - 52.0 °F 27% 29.60 in 10.0 mi SSW 17.3 mph - N/A   Partly Cloudy
6:53 PM 87.1 °F 85.1 °F 54.0 °F 32% 29.61 in 10.0 mi South 12.7 mph - N/A   Scattered Clouds
7:53 PM 84.0 °F 82.9 °F 55.0 °F 37% 29.62 in 10.0 mi South 13.8 mph - N/A   Partly Cloudy
8:53 PM 81.0 °F 80.7 °F 55.0 °F 41% 29.64 in 10.0 mi South 10.4 mph - N/A   Partly Cloudy
9:53 PM 79.0 °F - 57.0 °F 47% 29.65 in 10.0 mi South 10.4 mph - N/A   Scattered Clouds
10:53 PM 75.9 °F - 57.0 °F 52% 29.65 in 10.0 mi South 6.9 mph - N/A   Partly Cloudy
11:53 PM 77.0 °F - 55.9 °F 48% 29.64 in 10.0 mi South 10.4 mph - N/A   Mostly Cloudy